Location: Colorado Springs
(38.8340°N, 104.8210°W)
Time: 22:07:15
(UTC-07:00)

Vanguard 3 - Pass Details

Date: 22 October 2017
Orbit: 509 x 3263 km, 33.4° (Epoch: 17 November)

Event Time Altitude Azimuth Distance (km) Brightness Sun altitude
Rises 01:10:03 0° 197° (SSW) 7,218 - -61.7°
Reaches altitude 10° 01:17:10 10° 183° (S) 6,127 - -61.3°
Maximum altitude 01:28:51 20° 144° (SE) 4,834 - -60.6°
Exits shadow 01:37:20 12° 109° (ESE) 4,865 11.1 -59.9°
Drops below altitude 10° 01:38:23 10° 105° (ESE) 4,946 11.1 -59.8°
Sets 01:43:05 0° 89° (E) 5,501 11.6 -59.3°
